Погода в Питляре

Погода в Питляре : погода сейчас, прогноз погоды и архив. Всё, что Вы хотите узнать о погоде в Питляре!

Хотите узнать прогноз погоды в Питляре? Тогда Вам сюда: Погода в Питляре

Поиск расширенной информации на нашем сайте:

Другие новости

Новости СМИ2

Главная страница сайта

Новости сайта

03.07.2017

Напоминаем, что на нашем специализированном сайте Метеоцентр.Азия вы можете получить высокодетализированные автоматические прогнозы погоды по пунктам России, СНГ и мира в авиационном формате (включающие направление и скорость ветра, видимость, явления погоды, количество и форму облачности, нижнюю и верхнюю границу облачности).

Рекомендуем: Красивый телефонный номер.

Погода в Питляре - сегодня

Время (UTC), дата Ветер
(°,м/с) 
Видим.   Явления Облачность Т
(°С)
Тd
(°С)
f(%) Тe
(°С)
Pmin
(гПа)
dP
(гПа)
Po
(мм)
O2
(г/м3)
Тmin Tmax R s Состояние
почвы
21 21.11.17 030 (СВ) 20000 м  {снег} [диам. изморози 3 мм]  10/0 средняя 
[As op]
-14.4 -16.5 84 -14  1023.9  1.7  766  327           
00 22.11.17 030 (СВ) 20000 м  {снег} [диам. изморози 3 мм]  10/0 средняя 
[As op]
-15.2 -17.4 83 -17  1024.3  0.3  767  329           
03 22.11.17 040 (СВ) 20000 м  [диам. изморози 3 мм]  10/0 средняя 
[As op]
-16.1 -18.4 82 -18  1024.8  0.6  767  330  -16.1    0.0  36  равномерный
сухой снег
100% 
06 22.11.17 030 (СВ) н/о    н/о 
-16.5 -18.9 82 -19  1024.3  -0.5  767  330    -13.5       
09 22.11.17 030 (СВ) 20000 м  слаб. снег [диам. изморози 1 мм]  10/0 средняя 
[As op]
-16.4 -18.8 82 -19  1024.6  0.2  767  330           
12 22.11.17 030 (СВ) н/о    н/о 
-15.8 -18.2 82 -20  1024.5  0.1  767  329           
15 22.11.17 030 (СВ) 4000 м  слаб. снег  10/9 300 м средняя 
[Frnb|As op]
-15.9 -18.3 82 -20  1023.9  -0.5  766  329    -15.8     
18 22.11.17 040 (СВ) 10 км  слаб. снег  10/9 300 м средняя 
[Frnb|As op]
-16.4 -18.8 82 -20  1023.7  -0.3  766  330           
21 22.11.17 030 (СВ) 4000 м  слаб. снег  10/9 300 м средняя 
[Frnb|As op]
-16.4 -18.8 82 -19  1023.6  -0.1  766  330           
00 23.11.17 040 (СВ) н/о    н/о 
-17.1 -19.7 80 -22  1023.4  -0.2  766  331           
03 23.11.17 040 (СВ) 4000 м  слаб. снег  10/10 300 м 
[Frnb|Ns]
-17.9 -20.5 80 -18  1023.4  766  332  -17.9    40  равномерный
сухой снег
100% 
06 23.11.17 030 (СВ) н/о    н/о 
-17.7 -20.3 80 -22  1022.9  -0.6  765  331    -16.2       
09 23.11.17 030 (СВ) 4000 м  слаб. снег  10/10 300 м 
[Frnb|Ns]
-17 -19.4 82 -19  1022.1  -0.7  765  330           
12 23.11.17 020 (С) н/о    н/о 
-16.6 -19.1 81 -19  1020.8  -1.3  764  329           
15 23.11.17 020 (С) 10 км  слаб. снег  10/9 300 м средняя 
[Frnb|As op]
-15.4 -17.6 83 -15  1019.1  -1.7  763  327    -15.4     
18 23.11.17 030 (СВ) 4000 м  слаб. снег  10/9 300 м средняя 
[Frnb|As op]
-14.1 -16.5 82 -16  1016.2  -3  760  325           
21 23.11.17 050 (СВ) 2000 м  снег  10/10 300 м 
[Frnb|Ns]
-14.1 -16.7 81 -18  1014.2  -1.9  759  324           
00 24.11.17 030 (СВ) 2000 м  снег  10/10 300 м 
[Frnb|Ns]
-14.1 -16.7 81 -16  1011.3  -2.9  757  323           
03 24.11.17 020 (С) 2000 м  снег  10/10 300 м 
[Frnb|Ns]
-14.2 -16.7 81 -14  1007.3  -4  754  322  -15.4    47  равномерный
сухой снег
100% 
06 24.11.17 310 (СЗ) н/о    н/о 
-14.9 -17.5 81 -19  1004.7  -2.5  752  322    -14       
09 24.11.17 240 (ЮЗ) 2000 м  снег  10/10 300 м 
[Frnb|Ns]
-15.9 -18.5 80 -22  1004.2  -0.5  752  323           
12 24.11.17 210 (ЮЗ) 6{11}  н/о    н/о 
-15 -17.5 81 -21  1004.1  -0.2  751  322           
15 24.11.17 280 (З) 11-15{15}  4000 м  слаб. снег  10/9 300 м средняя 
[Frnb|As op]
-11.4 -13.9 82 -19  1005  0.9  752  318    -11.1     
18 24.11.17 270 (З) 13-17{22}  4000 м  слаб. снег  10/0 средняя 
[As op]
-15.1 -18.3 76 -25  1007.3  2.3  754  323           
21 24.11.17 310 (СЗ) 8-12{18}  4000 м  метель{снег}  10/0 средняя 
[As op]
-15.5 -18.7 76 -23  1012.1  4.8  757  325           
Время (UTC), дата Ветер
(°,м/с) 
Видим.   Явления Облачность Т
(°С)
Тd
(°С)
f(%) Тe
(°С)
Pmin
(гПа)
dP
(гПа)
Po
(мм)
O2
(г/м3)
Тmin Tmax R s Состояние
почвы

Для получения пояснительной информации подведите курсор к названию столбца.

ПОГОДА в Питляре - архив

Всё, что Вы хотите узнать о погоде в Питляре - удобно и подробно!

Выберите нужную дату (начиная с 1 января 2015* года) и нажмите кнопку "Найти".
Будут отображены архивные сводки погоды по пункту Питляр, начиная с указанной даты.


Отображать данные в формате CSV (для использования в таблицах Excel)


Внимание! Наш архив погоды предназначен исключительно для личного некоммерческого использования в познавательных целях. Если Вам необходимы официальные справки о состоянии погоды (для производственных, юридических, коммерческих и т.п. целей), обращайтесь в органы Росгидромета.

*Примечание: данная дата относится к архиву по метеостанциям СССР (Россия, СНГ, Балтия).
Архив по метеостанциям Зарубежной Европы и Азии (кроме Китая) хранится 10 дней, по другим регионам земного шара (Китай, Африка, Америка, Австралия, Океания) - 1 день.

Питляр - район местоположения метеостанции


Название, широта, долгота, высота метеостанции:
Питляр 65.8°ш. 66°д. 17 м над ур. моря [Российская Федерация]

Дополнительная информация

В oтличие oт бoльшинства пoгoдных сайтoв мы публикуем пoдрoбную метеoинфoрмацию в детальнoм прoфессиoнальнoм фoрмате.

Характеристики температуры и влажнoсти вoздуха измеряются на высoте 2 м в тени вдали oт зданий и деревьев.
Скoрoсть ветра измеряется на высoте 10 м (на урoвне рoста челoвека скoрoсть ветра ниже в 1.5-2 раза). Если метеoстанция нахoдится в гoрoде или в лесу, тo скoрoсть ветра занижена на 2-4 м/с пo сравнению с oткрытым местoм. Скoрoсть ветра над акватoриями крупных рек и oзёр, а также на вершинах хoлмoв на 2-5 м/с выше, чем в oбычных услoвиях.
Атмoсфернoе давление в разных тoчках местнoсти мoжет значительнo oтличаться oт давления на метеoстанции, в зависимoсти oт услoвий рельефа (при пoдъёме на 10 м давление пoнижается примернo на 1 мм рт.ст.).